Date,TemperatureHighF,TemperatureAvgF,TemperatureLowF,DewpointHighF,DewpointAvgF,DewpointLowF,HumidityHigh,HumidityAvg,HumidityLow,PressureMaxIn,PressureMinIn,WindSpeedMaxMPH,WindSpeedAvgMPH,GustSpeedMaxMPH,PrecipitationSumIn
2013-1-5,31,28,30,30,21,-100,97,89,85,29.93,29.84,7,-54,0,0.01
2013-1-6,36,33,31,33,30,26,97,89,77,30.12,29.76,9,5,0,0.05
2013-1-7,35,31,29,28,25,22,91,78,68,30.24,30.00,16,7,0,0.00
2013-1-8,36,29,22,28,24,20,94,83,69,30.10,30.02,8,4,0,0.00
2013-1-9,47,37,26,34,28,24,97,72,42,30.27,29.87,11,5,0,0.00
2013-1-10,41,32,22,33,27,22,99,85,62,30.43,30.04,5,2,0,0.05
2013-1-11,54,43,34,52,42,33,99,97,91,30.03,29.58,8,4,0,0.74
2013-1-12,58,48,42,50,46,42,99,93,73,29.77,29.66,10,4,0,0.00
2013-1-13,49,39,32,48,38,30,99,95,87,29.86,29.54,9,3,0,0.80
2013-1-14,31,24,16,29,18,14,95,78,61,30.28,29.87,13,3,0,0.00
2013-1-15,31,22,12,20,16,10,97,80,49,30.28,29.97,6,1,0,0.00
2013-1-16,39,29,17,27,19,15,99,71,38,29.98,29.60,14,4,0,0.00
2013-1-17,34,28,16,28,19,3,87,68,52,30.13,29.77,10,4,0,0.00
2013-1-18,35,23,10,23,14,5,93,69,51,30.27,29.78,21,7,0,0.00
2013-1-19,46,39,33,34,28,23,73,65,57,29.77,29.36,13,8,0,0.00
2013-1-20,44,23,15,34,9,3,70,56,41,30.00,29.34,20,7,0,0.00
2013-1-21,18,13,4,13,4,-6,87,66,51,29.96,29.76,11,4,0,0.00
2013-1-22,10,6,4,1,-3,-9,80,67,48,30.15,30.06,9,4,0,0.00
2013-1-23,17,10,-2,11,4,-4,88,78,61,30.11,29.90,10,3,0,0.00
2013-1-24,20,13,8,10,4,-1,89,71,44,30.41,29.93,11,3,0,0.00
2013-1-25,21,16,10,16,11,2,94,81,68,30.34,29.83,8,2,0,0.00
2013-1-26,29,20,11,18,15,10,95,80,54,30.26,29.87,9,1,0,0.00
2013-1-27,28,19,7,27,15,5,98,83,59,30.31,29.98,11,3,0,0.00
2013-1-28,42,35,29,42,34,28,99,97,92,30.00,29.64,8,3,0,0.65
2013-1-29,54,43,32,52,41,30,93,92,89,29.85,29.30,10,3,0,1.10
2013-1-30,59,50,33,54,46,28,93,88,80,29.29,28.90,13,6,0,0.47
2013-1-31,33,23,16,28,13,7,81,66,50,29.66,29.00,16,7,0,0.00
2013-2-1,21,16,10,9,5,0,75,64,46,30.06,29.67,15,6,0,0.00
2013-2-2,24,16,8,16,9,2,81,75,65,30.02,29.75,10,5,0,0.00
2013-2-3,22,14,5,16,5,0,81,70,56,29.82,29.64,8,3,0,0.00
2013-2-4,25,17,8,16,10,2,87,75,63,29.84,29.70,3,1,0,0.00
2013-2-5,27,20,13,23,14,9,88,78,53,29.76,29.62,10,3,0,0.02
2013-2-6,32,22,11,22,13,7,86,69,45,30.13,29.75,7,2,0,0.02
2013-2-7,36,29,24,24,20,15,78,68,59,30.12,29.73,6,3,0,0.01
2013-2-8,29,26,22,25,20,16,89,79,70,30.15,29.59,19,8,0,0.00
2013-2-9,31,21,10,18,13,6,88,72,49,30.27,30.12,7,3,0,0.07
2013-2-10,37,26,11,32,20,7,90,79,59,30.13,29.52,7,2,0,0.26
2013-2-11,42,37,32,39,29,23,90,73,60,29.65,29.35,17,7,0,0.05
2013-2-12,33,31,28,24,21,18,72,66,60,29.84,29.65,11,4,0,0.00
2013-2-13,43,30,26,23,20,18,82,67,40,29.74,29.53,7,2,0,0.00
2013-2-14,38,32,24,33,27,21,89,81,70,29.61,29.47,14,5,0,0.01
2013-2-15,34,28,23,27,15,8,74,58,40,29.93,29.62,10,4,0,0.00
2013-2-16,28,20,13,17,12,9,84,71,44,29.91,29.77,7,2,0,0.00
2013-2-17,25,15,7,10,4,1,83,62,41,30.03,29.83,10,3,0,0.00
2013-2-18,44,28,10,30,17,4,81,64,51,30.04,29.43,12,5,0,0.00
2013-2-19,44,30,18,37,22,8,88,72,58,29.71,29.22,17,8,0,0.12
2013-2-20,23,20,16,12,8,5,78,61,51,30.04,29.71,11,5,0,0.00
2013-2-21,24,19,17,16,10,8,78,68,55,30.22,30.03,10,4,0,0.00
2013-2-22,33,27,20,31,23,14,92,85,76,30.10,29.70,9,4,0,0.00
2013-2-23,35,31,26,29,21,18,86,68,53,29.72,29.67,10,4,0,0.00
2013-2-24,36,28,20,25,20,16,84,72,56,29.97,29.70,7,3,0,0.04
2013-2-25,40,28,14,23,18,11,88,68,42,30.07,29.93,5,1,0,0.01
2013-2-26,37,31,24,30,25,18,91,78,59,29.96,29.35,11,5,0,0.10
2013-2-27,36,34,32,33,31,30,93,89,85,29.39,29.28,7,4,0,0.77
2013-2-28,36,33,29,31,28,22,92,83,72,29.76,29.35,14,6,0,0.17
2013-3-1,29,26,25,23,19,18,80,74,68,29.92,29.77,19,7,0,0.00
2013-3-2,29,25,22,19,17,14,77,73,65,29.88,29.85,10,4,0,0.00
2013-3-3,29,22,15,16,13,11,85,69,50,29.86,29.81,11,3,0,0.01
2013-3-4,42,24,11,15,12,7,86,63,31,29.96,29.86,5,2,0,0.02
2013-3-5,37,27,15,22,19,11,85,71,52,29.96,29.67,9,4,0,0.00
2013-3-6,43,34,27,28,25,20,82,70,53,30.03,29.68,11,5,0,0.00
2013-3-7,37,32,25,28,24,18,85,73,62,30.22,30.02,10,2,0,0.00
2013-3-8,47,32,21,26,22,16,87,66,41,30.32,30.22,7,2,0,0.00
2013-3-9,45,34,23,30,26,21,91,75,54,30.25,29.87,9,2,0,0.00
2013-3-10,62,48,32,42,35,28,85,62,41,29.87,29.63,14,3,0,0.00
2013-3-11,55,48,38,45,40,31,89,75,56,29.65,29.28,16,7,0,0.35
2013-3-12,39,35,29,31,27,22,80,73,61,29.72,29.48,15,5,0,0.00
2013-3-13,35,29,26,26,18,12,87,64,43,29.98,29.65,12,6,0,0.00
2013-3-14,43,30,20,19,15,11,75,55,34,30.06,29.88,10,3,0,0.00
2013-3-15,40,34,29,32,26,16,89,72,51,29.87,29.66,8,3,0,0.03
2013-3-16,32,28,23,26,23,18,89,81,69,29.85,29.60,9,4,0,0.00
2013-3-17,31,26,18,21,15,12,79,65,51,30.09,29.84,11,5,0,0.00
2013-3-18,34,28,18,32,23,12,92,81,70,30.03,29.35,10,4,0,0.11
2013-3-19,34,27,24,30,20,16,85,74,64,29.73,29.41,14,7,0,0.03
2013-3-20,32,24,17,17,14,9,75,64,50,29.74,29.69,11,4,0,0.00
2013-3-21,33,24,15,23,16,9,81,72,61,29.73,29.64,12,5,0,0.00
2013-3-22,41,30,25,24,19,16,77,63,50,29.83,29.71,9,4,0,0.00
2013-3-23,41,32,24,26,22,20,84,67,52,29.91,29.82,8,2,0,0.00
2013-3-24,38,29,20,28,22,18,91,76,54,29.88,29.46,11,4,0,0.00
2013-3-25,39,34,31,27,25,23,76,69,61,29.70,29.40,14,8,0,0.00
2013-3-26,47,38,33,30,27,25,76,67,48,29.90,29.70,10,4,0,0.00
2013-3-27,49,39,30,29,26,22,75,60,41,30.00,29.90,9,5,0,0.00
2013-3-28,52,41,33,30,26,23,68,55,37,30.08,29.99,8,3,0,0.00
2013-3-29,55,42,31,25,22,21,65,48,28,30.10,30.00,7,2,0,0.00
2013-3-30,57,42,25,30,24,19,82,52,23,30.03,29.75,11,4,0,0.00
2013-3-31,60,45,32,42,33,24,84,64,39,29.75,29.41,11,3,0,0.03
2013-4-1,41,33,26,35,17,12,83,55,36,29.90,29.47,17,6,0,0.00
2013-4-2,44,31,21,19,14,10,77,51,33,30.06,29.90,11,4,0,0.00
2013-4-3,43,31,22,17,14,10,69,50,29,30.24,30.05,14,4,0,0.00
2013-4-4,56,40,24,21,18,16,76,46,22,30.18,29.75,12,4,0,0.00
2013-4-5,47,39,26,30,23,18,80,54,33,30.04,29.75,11,4,0,0.00
2013-4-6,48,36,23,29,22,18,79,60,41,30.09,29.62,10,3,0,0.00
2013-4-7,58,49,34,45,36,28,81,60,39,29.85,29.41,13,5,0,0.00
2013-4-8,61,42,29,52,38,27,96,85,66,29.88,29.52,8,3,0,0.13
2013-4-9,48,43,40,46,41,38,99,92,83,29.93,29.70,13,4,0,1.36
2013-4-10,43,40,37,42,39,36,99,98,95,29.82,29.67,12,6,0,0.46
2013-4-11,38,36,34,37,35,34,99,97,93,29.81,29.48,9,6,0,1.23
2013-4-12,45,38,34,42,36,34,99,91,77,29.57,29.33,10,4,0,0.42
2013-4-13,44,39,37,38,32,28,90,75,61,29.80,29.57,11,6,0,0.00
2013-4-14,47,39,28,37,31,26,93,73,53,29.93,29.77,8,2,0,0.00
2013-4-15,68,53,34,54,45,32,94,75,58,29.80,29.69,17,6,0,0.02
2013-4-16,63,55,44,54,44,35,93,69,38,30.07,29.69,7,4,0,0.01
2013-4-17,59,46,38,45,36,31,97,70,45,30.19,29.88,9,4,0,0.63
2013-4-18,77,58,43,65,55,42,99,90,63,29.86,29.38,28,6,0,0.85
2013-4-19,58,46,38,58,41,30,99,84,64,29.53,29.12,18,7,0,0.54
2013-4-20,41,34,27,33,23,17,95,64,44,30.26,29.53,14,5,0,0.00
2013-4-21,46,36,22,31,25,21,99,68,39,30.46,30.26,9,2,0,0.00
2013-4-22,60,46,29,37,32,26,99,64,32,30.31,30.04,9,2,0,0.00
2013-4-23,69,54,37,55,42,34,99,69,40,30.04,29.64,16,5,0,0.21
2013-4-24,55,40,35,55,39,32,99,97,87,29.94,29.56,11,4,0,0.76
2013-4-25,54,40,30,43,33,27,96,76,41,30.16,29.92,12,4,0,0.07
2013-4-26,57,46,28,37,32,27,97,63,42,30.28,30.16,13,4,0,0.00
2013-4-27,69,52,32,43,37,31,98,59,33,30.20,29.95,10,2,0,0.00
2013-4-28,57,50,43,52,45,34,99,83,60,29.94,29.67,6,2,0,0.31
2013-4-29,69,58,52,56,54,52,99,86,60,29.77,29.66,5,1,0,0.00
2013-4-30,71,60,48,58,54,48,99,82,60,29.93,29.77,15,4,0,0.20
2013-5-1,79,64,47,62,55,47,99,76,51,30.08,29.91,7,2,0,0.00
2013-5-2,77,64,50,57,51,43,98,64,45,30.11,29.99,8,2,0,0.00
2013-5-3,75,64,52,55,46,38,77,54,27,29.99,29.92,9,3,0,0.00
2013-5-4,72,61,51,48,43,38,84,53,31,30.00,29.91,9,3,0,0.01
2013-5-5,73,60,45,48,41,38,86,53,29,29.99,29.86,9,3,0,0.00
2013-5-6,74,60,44,52,44,38,84,57,41,29.93,29.82,8,2,0,0.00
2013-5-7,78,63,47,56,48,38,77,59,39,29.92,29.82,8,2,0,0.00
2013-5-8,81,65,51,57,49,40,80,58,35,29.86,29.75,8,2,0,0.00
2013-5-9,83,66,48,56,48,41,99,58,27,29.81,29.71,7,2,0,0.00
2013-5-10,66,56,41,63,51,39,99,85,41,29.74,29.56,10,3,0,0.43
2013-5-11,60,47,37,48,42,33,99,83,59,29.71,29.54,12,4,0,0.01
2013-5-12,51,41,34,34,30,25,86,66,46,29.91,29.69,12,5,0,0.00
2013-5-13,58,42,28,31,26,23,86,55,29,29.99,29.90,7,2,0,0.00
2013-5-14,65,52,38,46,40,31,90,67,45,29.94,29.57,9,3,0,0.00
2013-5-15,84,68,50,61,51,45,99,62,32,29.60,29.41,9,3,0,0.02
2013-5-16,82,66,51,51,45,39,77,49,28,29.87,29.59,7,2,0,0.00
2013-5-17,70,58,46,49,43,39,83,61,41,30.01,29.87,6,2,0,0.01
2013-5-18,80,64,52,52,47,43,77,55,30,30.01,29.88,9,2,0,0.00
2013-5-19,86,69,50,67,58,46,87,68,47,29.89,29.71,7,2,0,0.00
2013-5-20,88,73,56,72,64,56,99,74,46,29.78,29.60,14,3,0,0.00
2013-5-21,86,74,62,69,64,60,97,73,47,29.65,29.54,9,3,0,0.15
2013-5-22,80,70,63,67,64,60,99,82,54,29.57,29.44,12,5,0,0.02
2013-5-23,64,52,40,60,49,37,97,91,82,29.97,29.51,15,5,0,0.11
2013-5-24,57,44,36,38,35,32,91,71,45,30.19,29.97,11,4,0,0.00
2013-5-25,65,49,31,41,36,31,99,65,34,30.24,30.13,7,2,0,0.00
2013-5-26,71,53,34,42,36,32,96,59,32,30.19,30.08,7,2,0,0.00
2013-5-27,65,50,33,50,40,32,99,74,32,30.11,29.88,8,2,0,0.46
2013-5-28,70,59,50,69,58,50,99,99,93,29.88,29.65,5,1,0,2.15
2013-5-29,85,73,63,68,66,62,99,80,52,29.83,29.62,9,3,0,0.04
2013-5-30,87,71,60,72,65,59,98,84,56,29.91,29.83,8,2,0,0.39
2013-5-31,82,72,63,69,66,61,97,82,65,29.84,29.69,11,4,0,0.50
2013-6-1,81,71,64,67,63,60,94,77,59,29.71,29.51,9,4,0,0.09
2013-6-2,74,66,53,63,56,43,88,71,56,29.81,29.48,11,4,0,0.00
2013-6-3,72,57,41,45,41,38,88,58,36,29.91,29.81,9,2,0,0.00
2013-6-4,74,58,45,49,43,36,84,59,39,30.05,29.90,5,2,0,0.00
2013-6-5,77,60,44,51,44,36,80,57,36,30.04,29.83,5,2,0,0.00
2013-6-6,65,59,55,53,46,42,69,63,58,29.85,29.69,8,3,0,0.00
2013-6-7,62,56,50,52,49,46,90,79,68,29.75,29.70,8,3,0,0.00
2013-6-8,75,63,55,56,51,49,82,68,50,29.91,29.73,4,1,0,0.00
2013-6-9,76,64,50,56,52,48,92,67,49,29.98,29.80,8,2,0,0.00
2013-6-10,70,64,59,66,61,50,94,90,57,29.80,29.56,4,1,0,0.70
2013-6-11,85,70,62,65,62,60,94,76,47,29.71,29.58,10,2,0,0.00
2013-6-12,76,69,59,66,62,56,92,81,65,29.75,29.49,5,1,0,0.04
2013-6-13,76,68,60,62,56,51,92,70,44,29.74,29.40,10,4,0,1.18
2013-6-14,78,66,54,57,52,48,82,62,44,29.91,29.75,10,3,0,0.00
2013-6-15,79,65,49,63,55,46,92,71,46,29.92,29.74,6,1,0,0.00
2013-6-16,86,72,64,63,60,52,91,68,40,29.74,29.57,7,3,0,0.27
2013-6-17,87,70,58,61,56,52,90,64,39,29.76,29.68,14,2,0,0.24
2013-6-18,72,62,53,55,50,39,90,66,46,29.91,29.73,8,4,0,0.02
2013-6-19,79,63,48,53,45,38,79,55,35,30.02,29.91,5,2,0,0.00
2013-6-20,82,66,48,58,51,44,91,63,39,30.07,29.99,7,2,0,0.00
2013-6-21,86,70,52,65,57,49,90,65,45,30.06,29.91,10,2,0,0.00
2013-6-22,90,76,65,70,64,57,80,66,47,29.94,29.82,8,3,0,0.00
2013-6-23,93,79,68,69,66,63,89,65,43,29.89,29.79,9,4,0,0.00
2013-6-24,90,78,67,69,64,61,86,64,44,29.89,29.75,8,3,0,0.20
2013-6-25,87,73,67,68,65,62,90,77,50,29.79,29.65,6,2,0,0.20
2013-6-26,91,75,64,68,65,61,91,72,43,29.69,29.58,7,2,0,0.00
2013-6-27,86,73,65,71,66,60,91,79,46,29.59,29.46,9,1,0,3.49
2013-6-28,79,68,63,66,62,56,92,83,53,29.47,29.32,12,2,0,0.06
2013-6-29,76,68,61,61,58,52,90,73,55,29.56,29.35,8,3,0,0.00
2013-6-30,78,68,58,60,55,44,88,65,46,29.77,29.55,14,3,0,0.00
2013-7-1,70,64,60,58,52,44,87,65,54,29.89,29.77,7,4,0,0.09
2013-7-2,78,67,60,61,57,52,82,69,56,29.90,29.85,5,2,0,0.00
2013-7-3,84,71,58,68,60,54,89,71,46,29.94,29.87,7,2,0,0.00
2013-7-4,82,75,68,67,63,60,87,69,49,29.96,29.89,7,2,0,0.00
2013-7-5,86,75,69,66,63,58,89,68,42,29.95,29.87,5,1,0,0.01
2013-7-6,85,74,64,68,64,60,90,74,52,29.95,29.82,8,2,0,0.07
2013-7-7,83,75,70,69,66,63,91,75,56,29.86,29.79,7,2,0,0.02
2013-7-8,84,73,68,72,66,62,91,79,63,29.86,29.79,8,3,0,0.84
2013-7-9,89,77,69,72,68,65,92,76,47,29.82,29.68,5,2,0,0.02
2013-7-10,90,78,66,75,66,54,91,70,46,29.76,29.57,7,3,0,1.16
2013-7-11,78,68,60,59,54,51,79,62,44,29.91,29.76,11,3,0,0.00
2013-7-12,85,68,55,62,56,52,88,68,43,30.00,29.91,7,2,0,0.00
2013-7-13,85,73,59,64,59,55,90,65,42,30.06,29.97,7,2,0,0.00
2013-7-14,90,84,73,69,66,62,78,56,41,30.10,30.07,5,1,0,0.00
2013-7-15,91,78,68,73,69,65,91,76,52,30.15,30.07,7,1,0,1.46
2013-7-16,93,81,72,76,72,69,92,76,52,30.15,30.06,7,1,0,0.02
2013-7-17,97,84,72,73,71,68,87,65,43,30.11,29.97,6,1,0,0.00
2013-7-18,94,84,72,74,69,66,86,64,44,29.99,29.77,6,2,0,0.00
2013-7-19,94,83,75,71,69,64,83,65,42,29.79,29.54,12,4,0,0.14
2013-7-20,87,76,68,69,62,55,89,66,40,29.79,29.55,7,2,0,1.39
2013-7-21,86,71,62,62,56,50,72,60,40,29.84,29.76,7,2,0,0.00
2013-7-22,83,72,63,66,60,56,84,67,46,29.81,29.60,5,1,0,0.00
2013-7-23,81,70,59,69,62,48,88,78,56,29.70,29.49,14,3,0,0.40
2013-7-24,72,62,53,52,48,45,86,59,45,29.89,29.70,8,4,0,0.00
2013-7-25,79,64,49,56,51,46,89,64,42,29.95,29.88,5,2,0,0.00
2013-7-26,80,68,54,58,54,51,90,64,42,29.94,29.74,7,2,0,0.02
2013-7-27,72,66,56,63,59,51,86,80,61,29.74,29.56,7,3,0,0.17
2013-7-28,67,58,50,55,50,46,90,77,56,29.80,29.64,8,2,0,0.30
2013-7-29,71,61,55,54,52,51,90,75,52,30.01,29.79,8,2,0,0.01
2013-7-30,79,65,51,57,53,48,91,68,40,30.08,29.96,5,1,0,0.00
2013-7-31,72,66,58,66,61,54,90,84,71,29.98,29.68,7,1,0,0.52
2013-8-1,80,68,62,63,58,54,90,74,44,29.73,29.67,6,2,0,0.01
2013-8-2,77,66,55,61,56,51,85,70,48,29.74,29.65,7,2,0,0.00
2013-8-3,80,69,56,60,55,51,89,63,40,29.88,29.70,7,2,0,0.00
2013-8-4,75,63,53,54,51,47,86,67,44,29.99,29.88,10,3,0,0.00
2013-8-5,73,61,50,55,50,47,90,70,44,29.96,29.80,5,1,0,0.00
2013-8-6,77,68,60,62,59,54,87,74,56,29.81,29.72,8,3,0,0.00
2013-8-7,83,72,63,67,63,59,90,74,54,29.74,29.63,8,3,0,0.02
2013-8-8,78,69,62,65,60,52,86,74,55,29.84,29.72,6,3,0,0.00
2013-8-9,85,70,58,59,55,50,85,62,41,29.83,29.76,6,2,0,0.00
2013-8-10,79,68,56,57,54,50,87,63,40,29.96,29.83,9,2,0,0.00
2013-8-11,82,68,56,60,56,50,84,67,40,29.96,29.85,6,1,0,0.00
2013-8-12,71,65,60,64,60,56,91,85,77,29.89,29.66,6,2,0,0.41
2013-8-13,67,62,54,62,50,42,91,69,45,29.86,29.64,11,4,0,0.00
2013-8-14,72,59,49,50,46,42,81,65,42,29.98,29.87,10,3,0,0.00
2013-8-15,77,63,48,53,48,44,87,61,37,30.01,29.92,5,1,0,0.00
2013-8-16,80,71,57,58,54,51,86,56,40,30.05,29.98,5,2,0,0.02
2013-8-17,81,66,50,58,53,48,91,66,40,30.13,30.03,8,2,0,0.00
2013-8-18,82,68,55,61,55,51,91,66,36,30.07,29.95,6,1,0,0.00
2013-8-19,86,70,55,60,55,49,91,64,29,29.96,29.86,7,1,0,0.00
2013-8-20,89,73,57,63,59,53,90,64,39,29.98,29.89,7,2,0,0.00
2013-8-21,89,75,63,64,62,59,89,66,40,29.97,29.82,8,3,0,0.00
2013-8-22,86,76,69,64,62,59,82,63,43,29.87,29.77,7,2,0,0.00
2013-8-23,84,70,58,59,54,48,77,58,36,30.05,29.87,8,2,0,0.00
2013-8-24,83,68,53,59,54,50,91,65,40,30.17,30.05,6,2,0,0.00
2013-8-25,90,72,54,63,57,51,90,62,36,30.15,29.97,7,3,0,0.00
2013-8-26,91,80,71,68,62,57,68,56,43,29.99,29.79,8,3,0,0.00
2013-8-27,82,76,69,72,68,65,91,79,64,29.82,29.67,9,2,0,0.84
2013-8-28,83,76,70,72,68,64,91,78,56,29.84,29.61,11,3,0,0.01
2013-8-29,88,76,66,66,64,62,86,69,43,29.92,29.83,4,2,0,0.00
2013-8-30,89,76,64,69,64,61,92,71,44,29.85,29.56,8,3,0,1.17
2013-8-31,80,72,64,69,65,60,91,79,57,29.68,29.56,7,2,0,0.00
2013-9-1,82,70,62,67,63,59,91,81,61,29.68,29.54,5,1,0,0.00
2013-9-2,76,68,60,68,58,48,91,72,52,29.73,29.53,10,4,0,0.03
2013-9-3,75,63,56,54,51,48,81,65,47,29.83,29.72,8,3,0,0.00
2013-9-4,83,68,51,60,55,47,90,66,45,29.90,29.80,8,2,0,0.00
2013-9-5,71,61,47,58,48,42,85,65,43,30.10,29.89,11,3,0,0.00
2013-9-6,76,59,43,50,42,33,91,60,22,30.13,29.90,5,1,0,0.00
2013-9-7,82,67,52,68,57,44,85,70,52,29.90,29.71,6,2,0,0.03
2013-9-8,73,67,52,64,54,46,83,66,44,29.92,29.72,10,4,0,0.00
2013-9-9,76,63,50,65,56,46,91,80,66,29.91,29.73,5,1,0,0.00
2013-9-10,97,81,68,71,66,63,88,65,38,29.82,29.70,8,4,0,0.00
2013-9-11,92,78,68,70,66,62,91,68,49,29.86,29.72,11,2,0,0.89
2013-9-12,79,67,54,66,59,46,92,76,46,29.77,29.65,10,3,0,0.24
2013-9-13,58,52,42,48,43,37,85,71,55,29.97,29.76,11,4,0,0.02
2013-9-14,69,52,37,45,40,34,89,66,34,30.01,29.90,6,2,0,0.00
2013-9-15,64,54,47,52,48,42,90,79,59,29.94,29.88,4,1,0,0.07
2013-9-16,62,55,44,51,46,38,91,74,54,30.21,29.93,9,4,0,0.00
2013-9-17,66,51,39,49,42,36,90,72,38,30.25,30.05,9,2,0,0.00
2013-9-18,76,58,42,57,48,40,91,74,42,30.05,29.85,8,2,0,0.00
2013-9-19,79,66,53,65,59,50,92,79,63,29.88,29.74,11,3,0,0.00
2013-9-20,81,71,67,71,66,64,91,85,68,29.74,29.52,10,4,0,0.00
2013-9-21,67,62,52,64,55,43,92,79,58,29.68,29.47,9,3,0,0.00
2013-9-22,59,51,43,44,42,39,88,71,57,29.91,29.67,8,3,0,0.00
2013-9-23,62,50,41,47,42,38,92,77,55,30.01,29.91,7,1,0,0.00
2013-9-24,67,52,39,50,44,37,92,77,49,29.98,29.80,4,1,0,0.07
2013-9-25,72,55,44,52,47,42,92,75,44,29.85,29.77,5,2,0,0.01
2013-9-26,78,59,48,53,49,46,92,72,36,29.98,29.82,5,1,0,0.00
2013-9-27,78,60,46,57,51,44,93,76,49,30.07,29.97,6,1,0,0.00
2013-9-28,76,63,51,62,54,49,93,76,44,30.03,29.84,8,2,0,0.00
2013-9-29,63,58,54,60,56,51,93,91,83,29.85,29.77,5,1,0,0.16
2013-9-30,72,61,52,58,54,50,94,80,49,29.83,29.72,7,2,0,0.00
2013-10-1,71,61,50,64,57,48,95,87,74,29.83,29.74,9,3,0,0.00
2013-10-2,79,65,52,60,52,43,94,69,28,29.90,29.76,6,2,0,0.00
2013-10-3,79,65,51,68,58,47,91,80,66,29.90,29.74,8,2,0,0.00
2013-10-4,81,71,62,68,65,60,93,82,63,29.83,29.76,5,2,0,0.00
2013-10-5,75,67,63,70,64,60,94,89,82,29.86,29.71,5,1,0,0.32
2013-10-6,70,65,54,66,63,53,94,92,87,29.69,29.42,11,3,0,0.45
2013-10-7,59,52,45,53,48,43,95,87,71,29.92,29.47,10,3,0,0.04
2013-10-8,68,52,41,50,44,40,95,77,41,30.11,29.93,6,1,0,0.00
2013-10-9,69,53,40,56,45,39,95,77,41,30.15,30.04,7,1,0,0.00
2013-10-10,70,53,41,56,44,40,95,77,36,30.07,29.94,5,1,0,0.00
2013-10-11,74,54,41,50,44,39,95,74,31,29.99,29.90,4,1,0,0.00
2013-10-12,76,60,45,60,53,43,95,79,45,29.94,29.86,6,2,0,0.00
2013-10-13,70,59,45,58,46,35,94,65,29,30.17,29.91,7,2,0,0.00
2013-10-14,64,52,41,45,42,39,92,72,43,30.24,30.10,9,2,0,0.00
2013-10-15,66,52,38,59,48,36,95,87,72,30.10,29.64,8,3,0,0.06
2013-10-16,64,58,52,59,51,45,94,79,56,29.72,29.62,8,4,0,0.03
2013-10-17,53,51,46,48,46,43,91,86,80,29.71,29.54,6,2,0,0.29
2013-10-18,64,50,41,46,42,39,95,75,40,29.74,29.63,7,3,0,0.00
2013-10-19,51,44,40,44,40,36,93,85,71,29.71,29.53,7,3,0,0.18
2013-10-20,58,47,36,44,39,34,94,75,50,29.72,29.63,11,3,0,0.00
2013-10-21,55,50,39,47,43,34,88,76,65,29.68,29.59,9,5,0,0.10
2013-10-22,51,41,30,36,31,26,84,67,46,29.71,29.63,7,3,0,0.00
2013-10-23,49,40,31,34,30,24,93,69,38,29.72,29.61,10,3,0,0.00
2013-10-24,50,38,29,33,29,26,92,73,44,29.97,29.71,9,2,0,0.00
2013-10-25,48,38,30,35,30,27,90,73,49,30.12,29.91,10,3,0,0.00
2013-10-26,51,42,35,37,32,28,90,67,53,29.90,29.55,14,6,0,0.05
2013-10-27,51,40,32,36,32,28,89,74,52,29.87,29.77,8,2,0,0.00
2013-10-28,50,40,30,40,33,27,90,77,65,30.22,29.85,10,3,0,0.00
2013-10-29,48,41,35,34,32,28,82,69,49,30.27,30.08,6,2,0,0.00
2013-10-30,62,45,30,48,38,28,95,77,53,30.08,29.78,6,1,0,0.04
2013-10-31,61,58,52,60,56,48,95,93,87,29.78,28.96,12,6,0,1.85
2013-11-1,60,51,46,58,44,40,95,80,64,29.46,28.89,14,6,0,0.03
2013-11-2,47,43,35,44,40,31,95,89,79,29.90,29.44,10,4,0,0.24
2013-11-3,45,36,29,35,30,26,95,82,60,30.28,29.90,5,1,0,0.00
2013-11-4,47,38,27,35,30,25,94,73,49,30.32,30.12,9,3,0,0.00
2013-11-5,54,48,39,46,42,34,89,80,70,30.18,29.99,6,2,0,0.00
2013-11-6,55,52,42,51,46,38,89,81,69,29.98,29.60,16,6,0,0.25
2013-11-7,46,40,34,38,31,25,88,71,48,29.92,29.78,11,4,0,0.00
2013-11-8,46,33,28,29,26,24,86,76,50,30.09,29.91,6,1,0,0.00
2013-11-9,55,46,32,41,35,28,86,67,52,30.00,29.58,12,5,0,0.00
2013-11-10,48,42,30,36,31,26,86,66,52,30.07,29.67,13,4,0,0.04
2013-11-11,42,35,28,38,30,21,91,81,73,30.10,29.81,12,5,0,0.17
2013-11-12,35,28,22,21,17,13,81,65,49,30.33,30.10,14,5,0,0.00
2013-11-13,42,30,16,24,17,9,87,62,29,30.35,29.94,14,6,0,0.00
2013-11-14,49,39,28,26,22,17,70,52,38,29.95,29.76,17,8,0,0.00
2013-11-15,52,43,36,30,27,23,73,53,40,29.88,29.78,10,5,0,0.00
2013-11-16,55,43,28,50,39,25,94,84,74,29.93,29.62,14,4,0,0.00
2013-11-17,61,56,47,57,52,40,94,87,70,29.61,29.01,21,9,0,0.98
2013-11-18,48,40,35,41,31,23,78,68,60,29.92,29.22,18,7,0,0.00
2013-11-19,42,34,25,24,22,20,86,64,49,30.23,29.92,11,3,0,0.00
2013-11-20,44,32,23,34,26,20,93,80,52,30.28,30.06,9,2,0,0.00
2013-11-21,48,42,34,42,36,27,95,80,65,30.11,29.98,11,3,0,0.33
2013-11-22,45,38,24,44,36,21,96,90,78,30.16,29.94,10,2,0,0.10
2013-11-23,29,23,15,23,15,3,90,71,43,30.29,30.05,13,6,0,0.00
2013-11-24,25,18,13,13,9,7,79,68,48,30.38,30.21,10,4,0,0.00
2013-11-25,31,25,18,24,15,10,82,68,52,30.22,29.87,14,7,0,0.00
2013-11-26,33,31,28,27,26,24,83,80,76,29.90,29.71,9,4,0,0.00
2013-11-27,30,23,18,26,14,9,83,68,51,29.95,29.69,14,6,0,0.00
2013-11-28,27,21,16,21,15,9,83,76,67,30.21,29.95,8,2,0,0.00
2013-11-29,33,22,10,22,16,7,89,79,57,30.47,30.21,5,1,0,0.00
2013-11-30,42,33,20,28,25,17,89,73,54,30.36,29.88,11,4,0,0.00
2013-12-1,45,36,30,34,30,25,86,78,67,29.89,29.79,7,3,0,0.00
2013-12-2,39,32,24,29,24,19,86,74,51,29.79,29.68,7,2,0,0.00
2013-12-3,37,32,24,34,28,20,95,87,79,29.73,29.66,6,2,0,0.01
2013-12-4,55,43,34,51,40,33,96,91,84,29.73,29.44,7,2,0,0.01
2013-12-5,57,43,30,54,35,21,90,72,60,29.94,29.41,16,6,0,0.00
2013-12-6,30,26,19,21,16,12,73,67,62,30.19,29.92,7,3,0,0.00
2013-12-7,26,19,11,14,9,6,81,66,47,30.41,30.19,7,2,0,0.00
2013-12-8,27,19,9,24,13,5,87,78,62,30.39,29.81,8,3,0,0.00
2013-12-9,30,27,20,28,22,13,93,82,71,29.88,29.65,15,6,0,0.00
2013-12-10,22,18,12,16,9,4,83,68,46,29.97,29.72,12,6,0,0.00
2013-12-11,25,18,6,17,10,0,82,74,65,30.24,29.96,8,4,0,0.00
2013-12-12,19,13,4,11,5,-2,82,71,46,30.24,29.96,12,5,0,0.00
2013-12-13,28,23,18,19,16,10,79,74,65,30.10,29.92,8,3,0,0.00
2013-12-14,21,18,15,18,14,9,89,84,67,30.10,29.58,8,5,0,0.00
2013-12-15,26,18,8,23,15,4,89,84,73,29.81,29.56,12,4,0,0.00
2013-12-16,30,14,8,15,7,4,87,75,40,29.96,29.79,8,2,0,0.00
2013-12-17,28,21,12,23,17,9,90,84,77,29.79,29.64,11,4,0,0.00
2013-12-18,31,25,19,24,20,15,91,81,69,29.89,29.70,13,5,0,0.00
2013-12-19,43,32,24,34,25,16,87,76,67,29.79,29.65,9,3,0,0.15
2013-12-20,35,33,32,34,32,30,96,95,89,29.72,29.53,5,2,0,0.51
2013-12-21,34,33,32,33,32,30,97,96,94,29.66,29.47,9,4,0,0.76
2013-12-22,38,34,32,35,32,30,96,94,86,29.75,29.34,8,3,0,0.30
2013-12-23,32,28,22,31,24,16,96,85,73,30.09,29.74,7,3,0,0.00
2013-12-24,21,13,3,14,7,0,87,78,63,30.35,30.07,9,3,0,0.00
2013-12-25,24,17,2,21,13,-2,87,84,80,30.30,29.91,11,4,0,0.00
2013-12-26,29,25,23,25,20,15,90,80,60,30.08,29.80,14,4,0,0.00
2013-12-27,38,32,24,31,27,20,89,82,74,30.10,29.84,10,4,0,0.07
2013-12-28,46,38,28,35,31,25,91,77,64,29.91,29.69,10,6,0,0.00
2013-12-29,43,34,20,32,27,14,86,77,63,29.79,29.47,11,5,0,0.00
2013-12-30,21,18,15,14,9,5,80,67,53,30.06,29.78,8,3,0,0.00
2013-12-31,20,17,13,15,10,5,85,74,57,30.12,29.83,10,4,0,0.00
2014-1-1,15,13,10,11,7,2,86,77,61,30.20,30.05,7,4,0,0.00
2014-1-2,14,11,2,11,7,-3,86,83,78,30.04,29.87,17,8,0,0.00